Location: Newark
(51.3318°N, 0.0053°E)
Time: 16:22:29
(UTC+00:00)

ISS - Visible Passes

Search period start: 21 January 2022 00:00
Search period end: 31 January 2022 00:00
Orbit: 413 x 423 km, 51.6° (Epoch: 21 January)

Date Brightness Start Highest point End Pass type
(mag) Time Alt. Az. Time Alt. Az. Time Alt. Az.
21 Jan -2.5 18:02:00 10° SSW 18:04:55 28° SSE 18:05:58 23° ESE visible
21 Jan -0.8 19:38:05 10° WSW 19:38:55 16° WSW 19:38:55 16° WSW visible
22 Jan -1.9 17:14:43 10° SSW 17:17:16 20° SE 17:19:49 10° E visible
22 Jan -3.3 18:50:20 10° WSW 18:53:08 56° SW 18:53:08 56° SW visible
23 Jan -3.4 18:02:45 10° SW 18:06:00 53° SSE 18:07:26 28° E visible
23 Jan -0.9 19:39:24 10° W 19:40:24 18° W 19:40:24 18° W visible
24 Jan -2.9 17:15:22 10° SW 17:18:30 39° SSE 17:21:39 10° E visible
24 Jan -3.5 18:51:49 10° W 18:54:47 68° W 18:54:47 68° W visible
25 Jan -3.8 18:04:21 10° WSW 18:07:41 82° S 18:09:16 29° E visible
25 Jan -0.9 19:41:12 10° W 19:42:14 19° W 19:42:14 19° W visible
26 Jan -3.6 17:17:02 10° WSW 17:20:21 68° SSE 17:23:40 10° E visible
26 Jan -3.6 18:53:50 10° W 18:56:49 68° WNW 18:56:49 68° WNW visible
27 Jan -3.8 18:06:35 10° W 18:09:55 83° N 18:11:32 28° E visible
27 Jan -1.0 19:43:25 10° W 19:44:31 19° W 19:44:31 19° W visible
28 Jan -3.8 17:19:26 10° W 17:22:47 88° N 17:26:08 10° E visible
28 Jan -3.6 18:56:18 10° W 18:59:21 70° WSW 18:59:21 70° WSW visible
29 Jan -3.8 18:09:17 10° W 18:12:38 89° NNE 18:14:21 27° E visible
29 Jan -1.0 19:46:11 10° W 19:47:21 19° W 19:47:21 19° W visible
30 Jan -3.8 17:22:22 10° W 17:25:43 84° N 17:29:04 10° E visible
30 Jan -3.1 18:59:15 10° W 19:02:30 49° SSW 19:02:30 49° SSW visible
